World > North America > United States > Ohio

Fairpoint, Ohio Regional Weather

Lat: 40.12N, Lon: 80.93W
Wx Zone: OHZ059
Feedback

Fairpoint, OH Regional Weather

Expires:201910162000;;806882
ASUS41 KCLE 161912
RWRCLE
OHIO REGIONAL WEATHER ROUNDUP
NATIONAL WEATHER SERVICE WILMINGTON, OH
300 PM EDT WED OCT 16 2019

NOTE: "FAIR" INDICATES FEW OR NO CLOUDS BELOW 12,000 FEET WITH NO
SIGNIFICANT WEATHER AND/OR OBSTRUCTIONS TO VISIBILITY.


OHZ036-037-039>041-045>050-054>059-063>069-073>076-082>088-162000-
  CENTRAL AND SOUTHEAST OHIO
  
CITY           SKY/WX    TMP DP  RH WIND       PRES   REMARKS
COLUMBUS       CLOUDY    49  37  63 W20G26    29.78F                  
OSU AIRPORT    CLOUDY    49  38  65 W16G25    29.78S                  
BOLTON FIELD   CLOUDY    48  39  71 W12G17    29.80F                  
RICKENBACK AFB CLOUDY    48  38  66 W18       29.79F                  
NEWARK         CLOUDY    50  40  68 W13       29.76F                  
MARION         CLOUDY    49  40  71 W15G25    29.74F                  
LANCASTER      CLOUDY    49  38  65 W13G21    29.79S                  
ZANESVILLE     CLOUDY    49  38  65 W13G23    29.76S                  
NEW PHILLY     CLOUDY    50  39  66 W12G17    29.71F                  
$$
  

SKY/WX - Weather  TMP - Temperature  DP - Dew Point  RH - Relative Humidity
WIND - Wind Direction/Speed PRES - Barometric Pressure VSB - Visibility
WCI - Wind Chill Index E13G22 Wind - East Wind 13 mph/Gusts of 22 mph